Time,TemperatureF,DewpointF,PressureIn,WindDirection,WindDirectionDegrees,WindSpeedMPH,WindSpeedGustMPH,Humidity,HourlyPrecipIn,Conditions,Clouds,dailyrainin,SoftwareType,DateUTC
2013-02-06 00:00:00,30.1,24.4,29.53,NW,319,1.0,4.0,79,0.00,,,0.00,WeatherCatV1.02B3,2013-02-06 05:00:00,
2013-02-06 00:05:00,30.2,24.2,29.53,West,276,1.0,5.0,78,0.00,,,0.00,WeatherCatV1.02B3,2013-02-06 05:05:00,
2013-02-06 00:10:00,30.2,23.9,29.53,WNW,290,4.0,5.0,77,0.00,,,0.00,WeatherCatV1.02B3,2013-02-06 05:10:00,
2013-02-06 00:15:00,30.2,23.9,29.53,WNW,300,0.0,3.0,77,0.00,,,0.00,WeatherCatV1.02B3,2013-02-06 05:15:00,
2013-02-06 00:20:00,30.2,24.2,29.53,NW,308,0.0,3.0,78,0.00,,,0.00,WeatherCatV1.02B3,2013-02-06 05:20:00,
2013-02-06 00:25:00,30.2,24.5,29.54,WNW,290,0.0,1.0,79,0.00,,,0.00,WeatherCatV1.02B3,2013-02-06 05:25:00,
2013-02-06 00:30:00,30.2,24.5,29.55,WSW,248,2.0,2.0,79,0.00,,,0.00,WeatherCatV1.02B3,2013-02-06 05:30:00,
2013-02-06 00:35:00,30.3,24.3,29.55,NW,322,2.0,4.0,78,0.00,,,0.00,WeatherCatV1.02B3,2013-02-06 05:35:00,
2013-02-06 00:40:00,30.3,24.3,29.55,North,349,1.0,4.0,78,0.00,,,0.00,WeatherCatV1.02B3,2013-02-06 05:40:00,
2013-02-06 00:45:00,30.3,24.0,29.55,NW,309,4.0,8.0,77,0.00,,,0.00,WeatherCatV1.02B3,2013-02-06 05:45:00,
2013-02-06 00:50:00,30.3,24.0,29.55,WNW,287,2.0,5.0,77,0.00,,,0.00,WeatherCatV1.02B3,2013-02-06 05:50:00,
2013-02-06 00:55:00,30.3,24.0,29.56,WNW,294,3.0,6.0,77,0.00,,,0.00,WeatherCatV1.02B3,2013-02-06 05:55:00,
2013-02-06 01:00:00,30.3,24.0,29.56,North,355,2.0,3.0,77,0.00,,,0.00,WeatherCatV1.02B3,2013-02-06 06:00:00,
2013-02-06 01:05:00,30.2,23.9,29.55,WSW,245,2.0,4.0,77,0.00,,,0.00,WeatherCatV1.02B3,2013-02-06 06:05:00,
2013-02-06 01:10:00,30.1,24.1,29.56,ENE,63,1.0,2.0,78,0.00,,,0.00,WeatherCatV1.02B3,2013-02-06 06:10:00,
2013-02-06 01:15:00,30.1,24.4,29.56,WSW,257,0.0,1.0,79,0.00,,,0.00,WeatherCatV1.02B3,2013-02-06 06:15:00,
2013-02-06 01:20:00,30.0,24.6,29.55,East,92,3.0,3.0,80,0.00,,,0.00,WeatherCatV1.02B3,2013-02-06 06:20:00,
2013-02-06 01:25:00,30.0,24.6,29.56,West,267,0.0,1.0,80,0.00,,,0.00,WeatherCatV1.02B3,2013-02-06 06:25:00,
2013-02-06 01:30:00,29.9,24.5,29.56,WNW,302,0.0,6.0,80,0.00,,,0.00,WeatherCatV1.02B3,2013-02-06 06:30:00,
2013-02-06 01:35:00,29.8,24.4,29.56,NE,51,0.0,5.0,80,0.00,,,0.00,WeatherCatV1.02B3,2013-02-06 06:35:00,
2013-02-06 01:40:00,29.7,24.3,29.57,ENE,71,0.0,1.0,80,0.00,,,0.00,WeatherCatV1.02B3,2013-02-06 06:40:00,
2013-02-06 01:45:00,29.6,24.5,29.57,WNW,303,1.0,5.0,81,0.00,,,0.00,WeatherCatV1.02B3,2013-02-06 06:45:00,
2013-02-06 01:50:00,29.5,24.1,29.58,NNW,331,1.0,7.0,80,0.00,,,0.00,WeatherCatV1.02B3,2013-02-06 06:50:00,
2013-02-06 01:55:00,29.5,24.1,29.59,NNE,26,1.0,2.0,80,0.00,,,0.00,WeatherCatV1.02B3,2013-02-06 06:55:00,
2013-02-06 02:00:00,29.4,24.0,29.59,NE,46,0.0,1.0,80,0.00,,,0.00,WeatherCatV1.02B3,2013-02-06 07:00:00,
2013-02-06 02:05:00,29.2,23.8,29.59,WNW,294,0.0,2.0,80,0.00,,,0.00,WeatherCatV1.02B3,2013-02-06 07:05:00,
2013-02-06 02:10:00,29.2,23.8,29.59,West,263,0.0,1.0,80,0.00,,,0.00,WeatherCatV1.02B3,2013-02-06 07:10:00,
2013-02-06 02:15:00,29.1,23.7,29.60,NW,314,0.0,1.0,80,0.00,,,0.00,WeatherCatV1.02B3,2013-02-06 07:15:00,
2013-02-06 02:20:00,29.0,23.6,29.60,WSW,243,0.0,1.0,80,0.00,,,0.00,WeatherCatV1.02B3,2013-02-06 07:20:00,
2013-02-06 02:25:00,29.0,23.3,29.59,West,273,0.0,2.0,79,0.00,,,0.00,WeatherCatV1.02B3,2013-02-06 07:25:00,
2013-02-06 02:30:00,28.9,23.2,29.60,NW,318,7.0,7.0,79,0.00,,,0.00,WeatherCatV1.02B3,2013-02-06 07:30:00,
2013-02-06 02:35:00,28.9,23.2,29.61,WSW,252,0.0,1.0,79,0.00,,,0.00,WeatherCatV1.02B3,2013-02-06 07:35:00,
2013-02-06 02:40:00,28.8,23.1,29.61,NNW,342,2.0,5.0,79,0.00,,,0.00,WeatherCatV1.02B3,2013-02-06 07:40:00,
2013-02-06 02:45:00,28.8,23.1,29.61,WNW,289,0.0,3.0,79,0.00,,,0.00,WeatherCatV1.02B3,2013-02-06 07:45:00,
2013-02-06 02:50:00,28.6,22.6,29.61,NNE,13,2.0,4.0,78,0.00,,,0.00,WeatherCatV1.02B3,2013-02-06 07:50:00,
2013-02-06 02:55:00,28.5,22.5,29.62,NW,321,1.0,4.0,78,0.00,,,0.00,WeatherCatV1.02B3,2013-02-06 07:55:00,
2013-02-06 03:00:00,28.5,22.5,29.62,NW,307,2.0,4.0,78,0.00,,,0.00,WeatherCatV1.02B3,2013-02-06 08:00:00,
2013-02-06 03:05:00,28.4,22.4,29.62,NW,304,1.0,3.0,78,0.00,,,0.00,WeatherCatV1.02B3,2013-02-06 08:05:00,
2013-02-06 03:10:00,28.2,21.9,29.62,NW,318,1.0,5.0,77,0.00,,,0.00,WeatherCatV1.02B3,2013-02-06 08:10:00,
2013-02-06 03:15:00,28.2,21.9,29.62,NNW,343,1.0,3.0,77,0.00,,,0.00,WeatherCatV1.02B3,2013-02-06 08:15:00,
2013-02-06 03:20:00,28.1,21.8,29.62,NW,311,1.0,3.0,77,0.00,,,0.00,WeatherCatV1.02B3,2013-02-06 08:20:00,
2013-02-06 03:25:00,28.0,21.7,29.62,NNW,342,1.0,1.0,77,0.00,,,0.00,WeatherCatV1.02B3,2013-02-06 08:25:00,
2013-02-06 03:30:00,27.9,21.3,29.62,NNE,17,0.0,0.0,76,0.00,,,0.00,WeatherCatV1.02B3,2013-02-06 08:30:00,
2013-02-06 03:35:00,27.9,21.0,29.62,NNE,32,2.0,6.0,75,0.00,,,0.00,WeatherCatV1.02B3,2013-02-06 08:35:00,
2013-02-06 03:40:00,27.8,21.2,29.62,NNE,32,1.0,1.0,76,0.00,,,0.00,WeatherCatV1.02B3,2013-02-06 08:40:00,
2013-02-06 03:45:00,27.8,21.2,29.62,NNW,334,1.0,2.0,76,0.00,,,0.00,WeatherCatV1.02B3,2013-02-06 08:45:00,
2013-02-06 03:50:00,27.7,21.4,29.62,WNW,285,0.0,1.0,77,0.00,,,0.00,WeatherCatV1.02B3,2013-02-06 08:50:00,
2013-02-06 03:55:00,27.6,21.4,29.62,WSW,253,0.0,1.0,77,0.00,,,0.00,WeatherCatV1.02B3,2013-02-06 08:55:00,
2013-02-06 04:00:00,27.6,21.0,29.62,West,263,0.0,2.0,76,0.00,,,0.00,WeatherCatV1.02B3,2013-02-06 09:00:00,
2013-02-06 04:04:00,27.5,20.6,29.62,WNW,291,1.0,2.0,75,0.00,,,0.00,WeatherCatV1.02B3,2013-02-06 09:04:00,
2013-02-06 04:09:00,27.6,20.7,29.62,WNW,295,0.0,4.0,75,0.00,,,0.00,WeatherCatV1.02B3,2013-02-06 09:09:00,
2013-02-06 04:14:00,27.6,21.0,29.62,WNW,297,0.0,1.0,76,0.00,,,0.00,WeatherCatV1.02B3,2013-02-06 09:14:00,
2013-02-06 04:19:00,27.5,20.9,29.62,WNW,294,1.0,2.0,76,0.00,,,0.00,WeatherCatV1.02B3,2013-02-06 09:19:00,
2013-02-06 04:24:00,27.4,20.8,29.63,West,276,0.0,1.0,76,0.00,,,0.00,WeatherCatV1.02B3,2013-02-06 09:24:00,
2013-02-06 04:29:00,27.3,20.8,29.63,South,174,0.0,1.0,76,0.00,,,0.00,WeatherCatV1.02B3,2013-02-06 09:29:00,
2013-02-06 04:34:00,27.2,20.7,29.63,WSW,256,0.0,1.0,76,0.00,,,0.00,WeatherCatV1.02B3,2013-02-06 09:34:00,
2013-02-06 04:39:00,27.0,20.8,29.63,WSW,256,0.0,0.0,77,0.00,,,0.00,WeatherCatV1.02B3,2013-02-06 09:39:00,
2013-02-06 04:44:00,27.0,20.8,29.63,WSW,256,1.0,1.0,77,0.00,,,0.00,WeatherCatV1.02B3,2013-02-06 09:44:00,
2013-02-06 04:49:00,27.1,20.9,29.63,West,271,2.0,2.0,77,0.00,,,0.00,WeatherCatV1.02B3,2013-02-06 09:49:00,
2013-02-06 04:54:00,27.3,21.1,29.63,West,267,0.0,1.0,77,0.00,,,0.00,WeatherCatV1.02B3,2013-02-06 09:54:00,
2013-02-06 04:59:00,27.3,21.1,29.64,WNW,287,1.0,1.0,77,0.00,,,0.00,WeatherCatV1.02B3,2013-02-06 09:59:00,
2013-02-06 05:04:00,27.3,21.1,29.64,WNW,284,1.0,1.0,77,0.00,,,0.00,WeatherCatV1.02B3,2013-02-06 10:04:00,
2013-02-06 05:09:00,27.4,21.2,29.64,West,266,0.0,0.0,77,0.00,,,0.00,WeatherCatV1.02B3,2013-02-06 10:09:00,
2013-02-06 05:14:00,27.4,21.2,29.65,West,265,0.0,1.0,77,0.00,,,0.00,WeatherCatV1.02B3,2013-02-06 10:14:00,
2013-02-06 05:19:00,27.4,21.2,29.65,WNW,288,0.0,1.0,77,0.00,,,0.00,WeatherCatV1.02B3,2013-02-06 10:19:00,
2013-02-06 05:24:00,27.4,20.8,29.65,WNW,297,1.0,1.0,76,0.00,,,0.00,WeatherCatV1.02B3,2013-02-06 10:24:00,
2013-02-06 05:29:00,27.4,20.8,29.65,WNW,293,0.0,1.0,76,0.00,,,0.00,WeatherCatV1.02B3,2013-02-06 10:29:00,
2013-02-06 05:34:00,27.4,20.8,29.66,West,260,0.0,0.0,76,0.00,,,0.00,WeatherCatV1.02B3,2013-02-06 10:34:00,
2013-02-06 05:39:00,27.5,20.9,29.66,West,273,0.0,1.0,76,0.00,,,0.00,WeatherCatV1.02B3,2013-02-06 10:39:00,
2013-02-06 05:44:00,27.5,20.9,29.66,North,349,0.0,0.0,76,0.00,,,0.00,WeatherCatV1.02B3,2013-02-06 10:44:00,
2013-02-06 05:49:00,27.4,20.8,29.67,WSW,252,0.0,0.0,76,0.00,,,0.00,WeatherCatV1.02B3,2013-02-06 10:49:00,
2013-02-06 05:54:00,27.2,21.0,29.67,WSW,252,0.0,0.0,77,0.00,,,0.00,WeatherCatV1.02B3,2013-02-06 10:54:00,
2013-02-06 05:59:00,27.1,20.9,29.67,WNW,298,0.0,0.0,77,0.00,,,0.00,WeatherCatV1.02B3,2013-02-06 10:59:00,
2013-02-06 06:04:00,27.1,20.9,29.67,West,269,0.0,1.0,77,0.00,,,0.00,WeatherCatV1.02B3,2013-02-06 11:04:00,
2013-02-06 06:06:00,27.1,20.9,29.67,West,270,0.0,0.0,77,0.00,,,0.00,WeatherCatV1.02B3,2013-02-06 11:06:00,
2013-02-06 06:11:00,27.0,21.1,29.68,West,270,0.0,0.0,78,0.00,,,0.00,WeatherCatV1.02B3,2013-02-06 11:11:00,
2013-02-06 06:16:00,27.0,21.1,29.68,West,270,0.0,0.0,78,0.00,,,0.00,WeatherCatV1.02B3,2013-02-06 11:16:00,
2013-02-06 06:21:00,26.9,21.0,29.68,West,270,0.0,0.0,78,0.00,,,0.00,WeatherCatV1.02B3,2013-02-06 11:21:00,
2013-02-06 06:26:00,26.7,20.8,29.68,West,270,0.0,0.0,78,0.00,,,0.00,WeatherCatV1.02B3,2013-02-06 11:26:00,
2013-02-06 06:31:00,26.8,20.9,29.68,SW,224,0.0,1.0,78,0.00,,,0.00,WeatherCatV1.02B3,2013-02-06 11:31:00,
2013-02-06 06:36:00,26.9,20.7,29.69,WSW,237,0.0,1.0,77,0.00,,,0.00,WeatherCatV1.02B3,2013-02-06 11:36:00,
2013-02-06 06:41:00,26.9,20.7,29.69,WSW,238,0.0,0.0,77,0.00,,,0.00,WeatherCatV1.02B3,2013-02-06 11:41:00,
2013-02-06 06:46:00,26.9,20.7,29.69,WSW,238,0.0,0.0,77,0.00,,,0.00,WeatherCatV1.02B3,2013-02-06 11:46:00,
2013-02-06 06:51:00,26.9,20.7,29.69,WSW,238,0.0,0.0,77,0.00,,,0.00,WeatherCatV1.02B3,2013-02-06 11:51:00,
2013-02-06 06:56:00,26.9,20.4,29.69,WSW,238,0.0,0.0,76,0.00,,,0.00,WeatherCatV1.02B3,2013-02-06 11:56:00,
2013-02-06 07:01:00,26.9,20.4,29.69,WSW,238,0.0,0.0,76,0.00,,,0.00,WeatherCatV1.02B3,2013-02-06 12:01:00,
2013-02-06 07:06:00,26.8,20.3,29.70,WSW,238,0.0,1.0,76,0.00,,,0.00,WeatherCatV1.02B3,2013-02-06 12:06:00,
2013-02-06 07:11:00,26.7,20.2,29.70,WSW,237,1.0,1.0,76,0.00,,,0.00,WeatherCatV1.02B3,2013-02-06 12:11:00,
2013-02-06 07:16:00,26.7,19.9,29.70,WSW,240,1.0,1.0,75,0.00,,,0.00,WeatherCatV1.02B3,2013-02-06 12:16:00,
2013-02-06 07:21:00,26.7,20.2,29.70,WSW,248,0.0,1.0,76,0.00,,,0.00,WeatherCatV1.02B3,2013-02-06 12:21:00,
2013-02-06 07:26:00,26.7,20.2,29.70,WSW,246,0.0,1.0,76,0.00,,,0.00,WeatherCatV1.02B3,2013-02-06 12:26:00,
2013-02-06 07:31:00,26.6,20.1,29.70,WSW,246,0.0,0.0,76,0.00,,,0.00,WeatherCatV1.02B3,2013-02-06 12:31:00,
2013-02-06 07:36:00,26.2,19.7,29.70,WSW,246,0.0,0.0,76,0.00,,,0.00,WeatherCatV1.02B3,2013-02-06 12:36:00,
2013-02-06 07:41:00,25.7,19.5,29.70,SW,228,0.0,1.0,77,0.00,,,0.00,WeatherCatV1.02B3,2013-02-06 12:41:00,
2013-02-06 07:46:00,25.3,19.1,29.70,SW,218,0.0,1.0,77,0.00,,,0.00,WeatherCatV1.02B3,2013-02-06 12:46:00,
2013-02-06 07:51:00,25.2,19.3,29.70,SW,233,0.0,1.0,78,0.00,,,0.00,WeatherCatV1.02B3,2013-02-06 12:51:00,
2013-02-06 07:56:00,25.0,19.1,29.70,SW,233,0.0,0.0,78,0.00,,,0.00,WeatherCatV1.02B3,2013-02-06 12:56:00,
2013-02-06 08:01:00,24.4,18.8,29.70,SW,232,0.0,0.0,79,0.00,,,0.00,WeatherCatV1.02B3,2013-02-06 13:01:00,
2013-02-06 08:06:00,23.8,18.5,29.70,SW,233,0.0,0.0,80,0.00,,,0.00,WeatherCatV1.02B3,2013-02-06 13:06:00,
2013-02-06 08:11:00,23.1,18.2,29.70,SSW,201,0.0,0.0,81,0.00,,,0.00,WeatherCatV1.02B3,2013-02-06 13:11:00,
2013-02-06 08:16:00,22.6,18.0,29.70,SSW,201,0.0,0.0,82,0.00,,,0.00,WeatherCatV1.02B3,2013-02-06 13:16:00,
2013-02-06 08:21:00,22.1,17.5,29.71,SSW,202,0.0,0.0,82,0.00,,,0.00,WeatherCatV1.02B3,2013-02-06 13:21:00,
2013-02-06 08:26:00,21.6,17.5,29.71,SW,229,0.0,0.0,84,0.00,,,0.00,WeatherCatV1.02B3,2013-02-06 13:26:00,
2013-02-06 08:31:00,21.3,17.5,29.71,SW,229,0.0,0.0,85,0.00,,,0.00,WeatherCatV1.02B3,2013-02-06 13:31:00,
2013-02-06 08:36:00,21.4,17.9,29.71,SW,214,0.0,0.0,86,0.00,,,0.00,WeatherCatV1.02B3,2013-02-06 13:36:00,
2013-02-06 08:41:00,21.7,18.2,29.71,SW,214,0.0,0.0,86,0.00,,,0.00,WeatherCatV1.02B3,2013-02-06 13:41:00,
2013-02-06 08:46:00,21.7,17.9,29.72,SW,215,0.0,0.0,85,0.00,,,0.00,WeatherCatV1.02B3,2013-02-06 13:46:00,
2013-02-06 08:51:00,21.6,17.5,29.71,SSW,211,0.0,0.0,84,0.00,,,0.00,WeatherCatV1.02B3,2013-02-06 13:51:00,
2013-02-06 08:56:00,21.6,17.8,29.72,SSW,211,0.0,0.0,85,0.00,,,0.00,WeatherCatV1.02B3,2013-02-06 13:56:00,
2013-02-06 09:01:00,21.5,17.4,29.72,SSW,211,0.0,1.0,84,0.00,,,0.00,WeatherCatV1.02B3,2013-02-06 14:01:00,
2013-02-06 09:06:00,21.5,17.4,29.72,SSW,211,0.0,0.0,84,0.00,,,0.00,WeatherCatV1.02B3,2013-02-06 14:06:00,
2013-02-06 09:12:00,21.5,17.4,29.72,SW,214,0.0,0.0,84,0.00,,,0.00,WeatherCatV1.02B3,2013-02-06 14:12:00,
2013-02-06 09:17:00,21.6,17.8,29.72,SW,214,0.0,0.0,85,0.00,,,0.00,WeatherCatV1.02B3,2013-02-06 14:17:00,
2013-02-06 09:22:00,21.9,18.1,29.72,SW,214,0.0,0.0,85,0.00,,,0.00,WeatherCatV1.02B3,2013-02-06 14:22:00,
2013-02-06 09:27:00,22.4,18.3,29.72,SW,217,0.0,0.0,84,0.00,,,0.00,WeatherCatV1.02B3,2013-02-06 14:27:00,
2013-02-06 09:32:00,23.2,18.8,29.72,SW,228,0.0,0.0,83,0.00,,,0.00,WeatherCatV1.02B3,2013-02-06 14:32:00,
2013-02-06 09:37:00,24.0,18.7,29.73,SW,236,0.0,1.0,80,0.00,,,0.00,WeatherCatV1.02B3,2013-02-06 14:37:00,
2013-02-06 09:42:00,24.7,18.8,29.73,WSW,240,1.0,1.0,78,0.00,,,0.00,WeatherCatV1.02B3,2013-02-06 14:42:00,
2013-02-06 09:47:00,25.6,19.4,29.73,SW,228,1.0,2.0,77,0.00,,,0.00,WeatherCatV1.02B3,2013-02-06 14:47:00,
2013-02-06 09:52:00,26.0,19.5,29.73,SW,235,1.0,1.0,76,0.00,,,0.00,WeatherCatV1.02B3,2013-02-06 14:52:00,
2013-02-06 09:57:00,26.4,19.6,29.73,SW,233,1.0,2.0,75,0.00,,,0.00,WeatherCatV1.02B3,2013-02-06 14:57:00,
2013-02-06 10:02:00,26.9,19.4,29.73,WSW,245,1.0,2.0,73,0.00,,,0.00,WeatherCatV1.02B3,2013-02-06 15:02:00,
2013-02-06 10:07:00,27.2,19.7,29.73,SW,231,1.0,1.0,73,0.00,,,0.00,WeatherCatV1.02B3,2013-02-06 15:07:00,
2013-02-06 10:12:00,27.4,19.9,29.73,WSW,245,0.0,1.0,73,0.00,,,0.00,WeatherCatV1.02B3,2013-02-06 15:12:00,
2013-02-06 10:17:00,28.2,20.4,29.74,SSW,207,0.0,1.0,72,0.00,,,0.00,WeatherCatV1.02B3,2013-02-06 15:17:00,
2013-02-06 10:22:00,28.9,20.4,29.74,SW,235,0.0,3.0,70,0.00,,,0.00,WeatherCatV1.02B3,2013-02-06 15:22:00,
2013-02-06 10:27:00,29.7,20.8,29.74,SSE,156,1.0,2.0,69,0.00,,,0.00,WeatherCatV1.02B3,2013-02-06 15:27:00,
2013-02-06 10:32:00,30.2,20.6,29.74,SSW,193,1.0,2.0,67,0.00,,,0.00,WeatherCatV1.02B3,2013-02-06 15:32:00,
2013-02-06 10:37:00,30.8,20.8,29.75,WSW,239,1.0,3.0,66,0.00,,,0.00,WeatherCatV1.02B3,2013-02-06 15:37:00,
2013-02-06 10:42:00,30.8,21.2,29.74,WSW,239,2.0,2.0,67,0.00,,,0.00,WeatherCatV1.02B3,2013-02-06 15:42:00,
2013-02-06 10:47:00,31.2,21.2,29.74,WSW,242,0.0,2.0,66,0.00,,,0.00,WeatherCatV1.02B3,2013-02-06 15:47:00,
2013-02-06 10:52:00,31.7,21.3,29.74,SW,233,1.0,2.0,65,0.00,,,0.00,WeatherCatV1.02B3,2013-02-06 15:52:00,
2013-02-06 10:57:00,32.9,22.1,29.74,ESE,114,1.0,2.0,64,0.00,,,0.00,WeatherCatV1.02B3,2013-02-06 15:57:00,
2013-02-06 11:02:00,33.2,21.6,29.74,WSW,255,0.0,3.0,62,0.00,,,0.00,WeatherCatV1.02B3,2013-02-06 16:02:00,
2013-02-06 11:07:00,33.4,21.4,29.74,WSW,249,3.0,4.0,61,0.00,,,0.00,WeatherCatV1.02B3,2013-02-06 16:07:00,
2013-02-06 11:12:00,32.6,20.7,29.75,WSW,242,2.0,5.0,61,0.00,,,0.00,WeatherCatV1.02B3,2013-02-06 16:12:00,
2013-02-06 11:17:00,32.3,20.8,29.75,WSW,252,2.0,4.0,62,0.00,,,0.00,WeatherCatV1.02B3,2013-02-06 16:17:00,
2013-02-06 11:22:00,32.4,21.2,29.75,SW,233,4.0,5.0,63,0.00,,,0.00,WeatherCatV1.02B3,2013-02-06 16:22:00,
2013-02-06 11:27:00,32.5,20.9,29.75,WSW,246,2.0,4.0,62,0.00,,,0.00,WeatherCatV1.02B3,2013-02-06 16:27:00,
2013-02-06 11:32:00,32.5,21.3,29.75,SW,219,2.0,4.0,63,0.00,,,0.00,WeatherCatV1.02B3,2013-02-06 16:32:00,
2013-02-06 11:37:00,33.5,21.9,29.75,ESE,106,2.0,3.0,62,0.00,,,0.00,WeatherCatV1.02B3,2013-02-06 16:37:00,
2013-02-06 11:42:00,34.0,22.0,29.75,SSW,208,0.0,3.0,61,0.00,,,0.00,WeatherCatV1.02B3,2013-02-06 16:42:00,
2013-02-06 11:47:00,34.6,22.6,29.75,East,98,1.0,3.0,61,0.00,,,0.00,WeatherCatV1.02B3,2013-02-06 16:47:00,
2013-02-06 11:52:00,34.9,22.4,29.75,WNW,298,0.0,1.0,60,0.00,,,0.00,WeatherCatV1.02B3,2013-02-06 16:52:00,
2013-02-06 11:57:00,35.2,21.9,29.75,SW,222,2.0,4.0,58,0.00,,,0.00,WeatherCatV1.02B3,2013-02-06 16:57:00,
2013-02-06 12:02:00,34.8,22.3,29.75,West,262,0.0,2.0,60,0.00,,,0.01,WeatherCatV1.02B3,2013-02-06 17:02:00,
2013-02-06 12:07:00,35.3,22.4,29.75,SE,136,1.0,5.0,59,0.00,,,0.01,WeatherCatV1.02B3,2013-02-06 17:07:00,
2013-02-06 12:12:00,35.1,22.2,29.74,ESE,108,1.0,1.0,59,0.06,,,0.02,WeatherCatV1.02B3,2013-02-06 17:12:00,
2013-02-06 12:17:00,35.5,23.0,29.75,SE,134,0.0,1.0,60,0.06,,,0.02,WeatherCatV1.02B3,2013-02-06 17:17:00,
2013-02-06 12:22:00,36.7,23.7,29.75,WSW,243,2.0,2.0,59,0.04,,,0.02,WeatherCatV1.02B3,2013-02-06 17:22:00,
2013-02-06 12:27:00,36.8,23.0,29.75,SE,138,0.0,1.0,57,0.04,,,0.03,WeatherCatV1.02B3,2013-02-06 17:27:00,
2013-02-06 12:32:00,36.6,22.8,29.74,SE,124,0.0,2.0,57,0.04,,,0.03,WeatherCatV1.02B3,2013-02-06 17:32:00,
2013-02-06 12:37:00,36.8,22.6,29.74,ESE,115,2.0,2.0,56,0.04,,,0.03,WeatherCatV1.02B3,2013-02-06 17:37:00,
2013-02-06 12:42:00,36.5,22.7,29.74,East,101,0.0,2.0,57,0.00,,,0.03,WeatherCatV1.02B3,2013-02-06 17:42:00,
2013-02-06 12:47:00,36.5,22.7,29.74,East,82,2.0,2.0,57,0.00,,,0.04,WeatherCatV1.02B3,2013-02-06 17:47:00,
2013-02-06 12:52:00,36.8,22.6,29.74,NW,311,0.0,1.0,56,0.00,,,0.04,WeatherCatV1.02B3,2013-02-06 17:52:00,
2013-02-06 12:57:00,37.2,23.0,29.73,WSW,248,2.0,2.0,56,0.00,,,0.04,WeatherCatV1.02B3,2013-02-06 17:57:00,
2013-02-06 13:02:00,36.8,22.2,29.73,SW,221,4.0,6.0,55,0.00,,,0.04,WeatherCatV1.02B3,2013-02-06 18:02:00,
2013-02-06 13:07:00,36.4,22.2,29.73,SW,222,0.0,5.0,56,0.00,,,0.04,WeatherCatV1.02B3,2013-02-06 18:07:00,
2013-02-06 13:12:00,36.9,22.7,29.73,ENE,66,2.0,2.0,56,0.00,,,0.05,WeatherCatV1.02B3,2013-02-06 18:12:00,
2013-02-06 13:17:00,36.9,23.5,29.72,ESE,104,0.0,1.0,58,0.00,,,0.05,WeatherCatV1.02B3,2013-02-06 18:17:00,
2013-02-06 13:22:00,37.5,22.8,29.73,SSE,159,0.0,2.0,55,0.00,,,0.05,WeatherCatV1.02B3,2013-02-06 18:22:00,
2013-02-06 13:27:00,38.0,22.9,29.73,SE,137,1.0,2.0,54,0.00,,,0.05,WeatherCatV1.02B3,2013-02-06 18:27:00,
2013-02-06 13:32:00,38.3,23.6,29.72,ESE,120,1.0,1.0,55,0.00,,,0.06,WeatherCatV1.02B3,2013-02-06 18:32:00,
2013-02-06 13:37:00,37.9,23.2,29.72,East,80,1.0,2.0,55,0.00,,,0.06,WeatherCatV1.02B3,2013-02-06 18:37:00,
2013-02-06 13:42:00,37.5,23.2,29.72,SE,134,1.0,1.0,56,0.00,,,0.06,WeatherCatV1.02B3,2013-02-06 18:42:00,
2013-02-06 13:47:00,38.0,23.3,29.72,ENE,61,1.0,1.0,55,0.00,,,0.06,WeatherCatV1.02B3,2013-02-06 18:47:00,
2013-02-06 13:52:00,38.0,22.9,29.72,SSW,210,0.0,2.0,54,0.00,,,0.07,WeatherCatV1.02B3,2013-02-06 18:52:00,
2013-02-06 13:57:00,38.0,23.7,29.72,ESE,115,0.0,1.0,56,0.00,,,0.07,WeatherCatV1.02B3,2013-02-06 18:57:00,
2013-02-06 14:02:00,37.9,23.2,29.72,SSW,192,0.0,2.0,55,0.00,,,0.07,WeatherCatV1.02B3,2013-02-06 19:02:00,
2013-02-06 14:07:00,38.2,23.5,29.71,ESE,110,1.0,2.0,55,0.05,,,0.08,WeatherCatV1.02B3,2013-02-06 19:07:00,
2013-02-06 14:12:00,38.2,23.5,29.71,SSE,149,1.0,3.0,55,0.05,,,0.08,WeatherCatV1.02B3,2013-02-06 19:12:00,
2013-02-06 14:17:00,37.9,23.2,29.71,ESE,118,1.0,3.0,55,0.06,,,0.09,WeatherCatV1.02B3,2013-02-06 19:17:00,
2013-02-06 14:22:00,37.7,23.4,29.71,SE,126,2.0,3.0,56,0.06,,,0.09,WeatherCatV1.02B3,2013-02-06 19:22:00,
2013-02-06 14:27:00,37.5,23.2,29.71,East,95,0.0,3.0,56,0.07,,,0.10,WeatherCatV1.02B3,2013-02-06 19:27:00,
2013-02-06 14:32:00,37.9,24.5,29.71,WSW,245,3.0,3.0,58,0.07,,,0.11,WeatherCatV1.02B3,2013-02-06 19:32:00,
2013-02-06 14:37:00,37.1,22.4,29.72,SSW,211,2.0,3.0,55,0.07,,,0.11,WeatherCatV1.02B3,2013-02-06 19:37:00,
2013-02-06 14:42:00,36.9,23.5,29.72,ESE,104,1.0,1.0,58,0.07,,,0.12,WeatherCatV1.02B3,2013-02-06 19:42:00,
2013-02-06 14:47:00,36.8,23.4,29.71,ESE,119,1.0,1.0,58,0.07,,,0.12,WeatherCatV1.02B3,2013-02-06 19:47:00,
2013-02-06 14:52:00,37.1,22.9,29.71,ESE,110,1.0,5.0,56,0.07,,,0.13,WeatherCatV1.02B3,2013-02-06 19:52:00,
2013-02-06 14:57:00,36.8,22.6,29.71,East,84,1.0,3.0,56,0.07,,,0.14,WeatherCatV1.02B3,2013-02-06 19:57:00,
2013-02-06 15:02:00,36.9,23.5,29.71,South,169,0.0,4.0,58,0.07,,,0.14,WeatherCatV1.02B3,2013-02-06 20:02:00,
2013-02-06 15:07:00,37.2,23.4,29.71,ENE,72,1.0,3.0,57,0.08,,,0.15,WeatherCatV1.02B3,2013-02-06 20:07:00,
2013-02-06 15:12:00,36.7,22.9,29.71,ESE,104,2.0,3.0,57,0.08,,,0.15,WeatherCatV1.02B3,2013-02-06 20:12:00,
2013-02-06 15:17:00,36.3,23.8,29.71,West,262,1.0,1.0,60,0.07,,,0.16,WeatherCatV1.02B3,2013-02-06 20:17:00,
2013-02-06 15:22:00,36.9,23.5,29.71,WSW,246,2.0,4.0,58,0.07,,,0.16,WeatherCatV1.02B3,2013-02-06 20:22:00,
2013-02-06 15:27:00,37.3,23.9,29.71,East,87,0.0,1.0,58,0.07,,,0.17,WeatherCatV1.02B3,2013-02-06 20:27:00,
2013-02-06 15:32:00,37.6,23.8,29.71,SE,124,0.0,3.0,57,0.06,,,0.17,WeatherCatV1.02B3,2013-02-06 20:32:00,
2013-02-06 15:37:00,37.6,23.3,29.71,SW,221,1.0,6.0,56,0.04,,,0.18,WeatherCatV1.02B3,2013-02-06 20:37:00,
2013-02-06 15:42:00,37.2,24.2,29.71,SSE,148,0.0,1.0,59,0.04,,,0.18,WeatherCatV1.02B3,2013-02-06 20:42:00,
2013-02-06 15:47:00,37.1,22.4,29.71,SSW,207,0.0,4.0,55,0.04,,,0.18,WeatherCatV1.02B3,2013-02-06 20:47:00,
2013-02-06 15:52:00,36.6,23.2,29.71,SE,136,1.0,3.0,58,0.04,,,0.18,WeatherCatV1.02B3,2013-02-06 20:52:00,
2013-02-06 15:57:00,36.6,23.2,29.70,NE,46,0.0,3.0,58,0.00,,,0.19,WeatherCatV1.02B3,2013-02-06 20:57:00,
2013-02-06 16:02:00,36.4,23.5,29.70,ESE,113,0.0,1.0,59,0.00,,,0.19,WeatherCatV1.02B3,2013-02-06 21:02:00,
2013-02-06 16:07:00,36.8,24.2,29.70,ESE,113,0.0,0.0,60,0.00,,,0.19,WeatherCatV1.02B3,2013-02-06 21:07:00,
2013-02-06 16:12:00,37.1,23.3,29.70,SSW,203,0.0,3.0,57,0.00,,,0.19,WeatherCatV1.02B3,2013-02-06 21:12:00,
2013-02-06 16:17:00,37.3,24.3,29.70,ESE,120,1.0,1.0,59,0.00,,,0.20,WeatherCatV1.02B3,2013-02-06 21:17:00,
2013-02-06 16:22:00,36.9,23.5,29.70,East,80,0.0,3.0,58,0.00,,,0.20,WeatherCatV1.02B3,2013-02-06 21:22:00,
2013-02-06 16:27:00,36.3,23.4,29.69,SE,138,0.0,5.0,59,0.00,,,0.20,WeatherCatV1.02B3,2013-02-06 21:27:00,
2013-02-06 16:32:00,35.7,23.2,29.70,SE,134,2.0,4.0,60,0.00,,,0.20,WeatherCatV1.02B3,2013-02-06 21:32:00,
2013-02-06 16:37:00,35.4,23.7,29.70,SE,134,0.0,1.0,62,0.00,,,0.20,WeatherCatV1.02B3,2013-02-06 21:37:00,
2013-02-06 16:42:00,35.2,23.9,29.69,SSE,151,0.0,0.0,63,0.00,,,0.20,WeatherCatV1.02B3,2013-02-06 21:42:00,
2013-02-06 16:47:00,35.5,24.5,29.70,SSE,159,0.0,0.0,64,0.00,,,0.20,WeatherCatV1.02B3,2013-02-06 21:47:00,
2013-02-06 16:52:00,36.2,24.1,29.70,SSE,158,0.0,0.0,61,0.00,,,0.20,WeatherCatV1.02B3,2013-02-06 21:52:00,
2013-02-06 16:57:00,35.3,23.6,29.69,ESE,119,0.0,0.0,62,0.00,,,0.20,WeatherCatV1.02B3,2013-02-06 21:57:00,
2013-02-06 17:02:00,34.3,23.4,29.69,ESE,112,0.0,0.0,64,0.00,,,0.20,WeatherCatV1.02B3,2013-02-06 22:02:00,
2013-02-06 17:07:00,33.7,23.6,29.69,SE,132,0.0,2.0,66,0.00,,,0.20,WeatherCatV1.02B3,2013-02-06 22:07:00,
2013-02-06 17:12:00,33.4,23.6,29.69,SE,132,0.0,0.0,67,0.00,,,0.21,WeatherCatV1.02B3,2013-02-06 22:12:00,
2013-02-06 17:17:00,32.8,23.4,29.69,ESE,120,0.0,0.0,68,0.00,,,0.21,WeatherCatV1.02B3,2013-02-06 22:17:00,
2013-02-06 17:22:00,32.3,23.3,29.70,SE,141,0.0,2.0,69,0.00,,,0.21,WeatherCatV1.02B3,2013-02-06 22:22:00,
2013-02-06 17:27:00,31.8,23.1,29.70,SSW,194,0.0,1.0,70,0.00,,,0.21,WeatherCatV1.02B3,2013-02-06 22:27:00,
2013-02-06 17:32:00,31.3,23.0,29.70,South,191,0.0,0.0,71,0.00,,,0.21,WeatherCatV1.02B3,2013-02-06 22:32:00,
2013-02-06 17:37:00,30.9,23.0,29.70,SSW,192,0.0,0.0,72,0.00,,,0.21,WeatherCatV1.02B3,2013-02-06 22:37:00,
2013-02-06 17:42:00,30.6,23.0,29.70,South,191,0.0,0.0,73,0.00,,,0.21,WeatherCatV1.02B3,2013-02-06 22:42:00,
2013-02-06 17:47:00,30.5,23.5,29.70,SSW,192,0.0,0.0,75,0.00,,,0.21,WeatherCatV1.02B3,2013-02-06 22:47:00,
2013-02-06 17:52:00,30.4,23.4,29.70,SSW,192,0.0,0.0,75,0.00,,,0.21,WeatherCatV1.02B3,2013-02-06 22:52:00,
2013-02-06 17:57:00,30.4,23.4,29.70,South,191,0.0,0.0,75,0.00,,,0.21,WeatherCatV1.02B3,2013-02-06 22:57:00,
2013-02-06 18:02:00,30.5,23.9,29.70,South,191,0.0,0.0,76,0.00,,,0.21,WeatherCatV1.02B3,2013-02-06 23:02:00,
2013-02-06 18:07:00,30.4,24.1,29.70,South,191,0.0,0.0,77,0.00,,,0.21,WeatherCatV1.02B3,2013-02-06 23:07:00,
2013-02-06 18:12:00,30.3,24.3,29.69,SSW,192,0.0,0.0,78,0.00,,,0.21,WeatherCatV1.02B3,2013-02-06 23:12:00,
2013-02-06 18:17:00,30.3,24.0,29.69,ESE,119,0.0,1.0,77,0.00,,,0.21,WeatherCatV1.02B3,2013-02-06 23:17:00,
2013-02-06 18:22:00,30.3,24.3,29.70,ESE,118,0.0,0.0,78,0.00,,,0.21,WeatherCatV1.02B3,2013-02-06 23:22:00,
2013-02-06 18:27:00,30.1,24.1,29.70,ESE,118,0.0,0.0,78,0.00,,,0.21,WeatherCatV1.02B3,2013-02-06 23:27:00,
2013-02-06 18:32:00,29.9,23.9,29.70,ESE,119,0.0,0.0,78,0.00,,,0.21,WeatherCatV1.02B3,2013-02-06 23:32:00,
2013-02-06 18:37:00,29.6,23.6,29.70,ESE,119,0.0,0.0,78,0.00,,,0.21,WeatherCatV1.02B3,2013-02-06 23:37:00,
2013-02-06 18:42:00,29.4,24.0,29.71,ESE,118,0.0,0.0,80,0.00,,,0.21,WeatherCatV1.02B3,2013-02-06 23:42:00,
2013-02-06 18:47:00,29.3,23.9,29.71,ESE,118,0.0,0.0,80,0.00,,,0.21,WeatherCatV1.02B3,2013-02-06 23:47:00,
2013-02-06 18:52:00,29.3,24.2,29.70,ESE,119,0.0,0.0,81,0.00,,,0.21,WeatherCatV1.02B3,2013-02-06 23:52:00,
2013-02-06 18:57:00,29.3,23.9,29.70,ESE,118,0.0,0.0,80,0.00,,,0.21,WeatherCatV1.02B3,2013-02-06 23:57:00,
2013-02-06 19:02:00,29.2,23.8,29.70,ESE,118,0.0,0.0,80,0.00,,,0.21,WeatherCatV1.02B3,2013-02-07 00:02:00,
2013-02-06 19:07:00,28.9,23.8,29.71,ESE,118,0.0,0.0,81,0.00,,,0.21,WeatherCatV1.02B3,2013-02-07 00:07:00,
2013-02-06 19:12:00,28.8,24.0,29.70,ESE,118,0.0,1.0,82,0.00,,,0.21,WeatherCatV1.02B3,2013-02-07 00:12:00,
2013-02-06 19:17:00,28.8,23.7,29.70,ESE,118,0.0,0.0,81,0.00,,,0.21,WeatherCatV1.02B3,2013-02-07 00:17:00,
2013-02-06 19:22:00,28.7,23.6,29.70,ESE,118,0.0,0.0,81,0.00,,,0.21,WeatherCatV1.02B3,2013-02-07 00:22:00,
2013-02-06 19:27:00,28.4,23.6,29.70,ESE,119,0.0,0.0,82,0.00,,,0.21,WeatherCatV1.02B3,2013-02-07 00:27:00,
2013-02-06 19:32:00,28.1,23.3,29.70,ESE,118,0.0,0.0,82,0.00,,,0.21,WeatherCatV1.02B3,2013-02-07 00:32:00,
2013-02-06 19:37:00,27.9,23.4,29.70,ESE,118,0.0,0.0,83,0.00,,,0.21,WeatherCatV1.02B3,2013-02-07 00:37:00,
2013-02-06 19:42:00,27.9,23.4,29.70,ESE,118,0.0,0.0,83,0.00,,,0.21,WeatherCatV1.02B3,2013-02-07 00:42:00,
2013-02-06 19:47:00,28.1,23.6,29.69,ESE,118,0.0,1.0,83,0.00,,,0.21,WeatherCatV1.02B3,2013-02-07 00:47:00,
2013-02-06 19:52:00,28.6,23.8,29.69,ESE,105,0.0,1.0,82,0.00,,,0.21,WeatherCatV1.02B3,2013-02-07 00:52:00,
2013-02-06 19:57:00,29.0,23.9,29.69,ESE,104,0.0,1.0,81,0.00,,,0.21,WeatherCatV1.02B3,2013-02-07 00:57:00,
2013-02-06 20:02:00,29.0,23.9,29.69,ESE,105,0.0,0.0,81,0.00,,,0.21,WeatherCatV1.02B3,2013-02-07 01:02:00,
2013-02-06 20:07:00,29.2,24.1,29.69,ESE,104,0.0,0.0,81,0.00,,,0.21,WeatherCatV1.02B3,2013-02-07 01:07:00,
2013-02-06 20:12:00,29.5,24.4,29.68,ESE,105,0.0,1.0,81,0.00,,,0.21,WeatherCatV1.02B3,2013-02-07 01:12:00,
2013-02-06 20:17:00,29.7,24.6,29.68,East,101,0.0,1.0,81,0.00,,,0.21,WeatherCatV1.02B3,2013-02-07 01:17:00,
2013-02-06 20:22:00,29.9,24.8,29.68,ESE,114,0.0,0.0,81,0.00,,,0.21,WeatherCatV1.02B3,2013-02-07 01:22:00,
2013-02-06 20:27:00,29.8,24.7,29.67,SE,129,0.0,1.0,81,0.00,,,0.21,WeatherCatV1.02B3,2013-02-07 01:27:00,
2013-02-06 20:32:00,29.8,25.0,29.66,SE,129,0.0,0.0,82,0.00,,,0.21,WeatherCatV1.02B3,2013-02-07 01:32:00,
2013-02-06 20:37:00,30.0,25.2,29.66,ESE,114,0.0,1.0,82,0.00,,,0.21,WeatherCatV1.02B3,2013-02-07 01:37:00,
2013-02-06 20:42:00,30.2,25.7,29.67,SE,139,0.0,1.0,83,0.00,,,0.21,WeatherCatV1.02B3,2013-02-07 01:42:00,
2013-02-06 20:47:00,30.2,25.7,29.67,SE,140,0.0,0.0,83,0.00,,,0.21,WeatherCatV1.02B3,2013-02-07 01:47:00,
2013-02-06 20:52:00,30.4,25.6,29.67,ESE,117,0.0,0.0,82,0.00,,,0.21,WeatherCatV1.02B3,2013-02-07 01:52:00,
2013-02-06 20:57:00,30.5,25.7,29.67,ESE,112,0.0,0.0,82,0.00,,,0.21,WeatherCatV1.02B3,2013-02-07 01:57:00,
2013-02-06 21:02:00,30.5,25.7,29.66,ESE,107,0.0,1.0,82,0.00,,,0.21,WeatherCatV1.02B3,2013-02-07 02:02:00,
2013-02-06 21:07:00,30.5,25.7,29.67,ESE,110,0.0,0.0,82,0.00,,,0.21,WeatherCatV1.02B3,2013-02-07 02:07:00,
2013-02-06 21:12:00,30.3,25.8,29.67,ESE,108,0.0,0.0,83,0.00,,,0.21,WeatherCatV1.02B3,2013-02-07 02:12:00,
2013-02-06 21:17:00,30.2,25.7,29.67,ESE,110,0.0,0.0,83,0.00,,,0.21,WeatherCatV1.02B3,2013-02-07 02:17:00,
2013-02-06 21:22:00,30.1,25.9,29.66,ESE,108,0.0,0.0,84,0.00,,,0.21,WeatherCatV1.02B3,2013-02-07 02:22:00,
2013-02-06 21:27:00,30.1,25.6,29.67,SE,127,0.0,0.0,83,0.00,,,0.21,WeatherCatV1.02B3,2013-02-07 02:27:00,
2013-02-06 21:32:00,30.2,25.7,29.66,ESE,109,0.0,0.0,83,0.00,,,0.21,WeatherCatV1.02B3,2013-02-07 02:32:00,
2013-02-06 21:37:00,30.3,25.8,29.66,ESE,103,0.0,0.0,83,0.00,,,0.21,WeatherCatV1.02B3,2013-02-07 02:37:00,
2013-02-06 21:42:00,30.5,26.0,29.66,ESE,108,0.0,1.0,83,0.00,,,0.21,WeatherCatV1.02B3,2013-02-07 02:42:00,
2013-02-06 21:47:00,30.5,26.0,29.66,SE,133,0.0,0.0,83,0.00,,,0.21,WeatherCatV1.02B3,2013-02-07 02:47:00,
2013-02-06 21:52:00,30.6,26.1,29.66,SE,133,0.0,1.0,83,0.00,,,0.21,WeatherCatV1.02B3,2013-02-07 02:52:00,
2013-02-06 21:57:00,30.6,26.1,29.66,ESE,122,0.0,0.0,83,0.00,,,0.21,WeatherCatV1.02B3,2013-02-07 02:57:00,
2013-02-06 22:02:00,30.6,26.1,29.66,SE,133,0.0,1.0,83,0.00,,,0.21,WeatherCatV1.02B3,2013-02-07 03:02:00,
2013-02-06 22:07:00,30.8,26.0,29.66,East,97,0.0,1.0,82,0.00,,,0.21,WeatherCatV1.02B3,2013-02-07 03:07:00,
2013-02-06 22:12:00,30.8,26.0,29.66,SSE,152,0.0,2.0,82,0.00,,,0.21,WeatherCatV1.02B3,2013-02-07 03:12:00,
2013-02-06 22:17:00,30.9,26.1,29.66,ENE,75,0.0,2.0,82,0.00,,,0.21,WeatherCatV1.02B3,2013-02-07 03:17:00,
2013-02-06 22:22:00,31.0,26.2,29.66,East,101,0.0,1.0,82,0.00,,,0.21,WeatherCatV1.02B3,2013-02-07 03:22:00,
2013-02-06 22:27:00,31.0,26.2,29.66,East,100,0.0,0.0,82,0.00,,,0.21,WeatherCatV1.02B3,2013-02-07 03:27:00,
2013-02-06 22:32:00,31.1,26.3,29.65,ESE,123,0.0,0.0,82,0.00,,,0.21,WeatherCatV1.02B3,2013-02-07 03:32:00,
2013-02-06 22:37:00,31.2,26.4,29.66,SE,139,0.0,1.0,82,0.00,,,0.21,WeatherCatV1.02B3,2013-02-07 03:37:00,
2013-02-06 22:42:00,31.2,26.4,29.66,ESE,102,0.0,1.0,82,0.00,,,0.21,WeatherCatV1.02B3,2013-02-07 03:42:00,
2013-02-06 22:47:00,31.1,26.3,29.66,ESE,102,0.0,0.0,82,0.00,,,0.21,WeatherCatV1.02B3,2013-02-07 03:47:00,
2013-02-06 22:52:00,31.0,26.5,29.66,ESE,103,0.0,0.0,83,0.00,,,0.21,WeatherCatV1.02B3,2013-02-07 03:52:00,
2013-02-06 22:57:00,30.9,26.4,29.66,ESE,113,0.0,2.0,83,0.00,,,0.21,WeatherCatV1.02B3,2013-02-07 03:57:00,
2013-02-06 23:02:00,30.8,26.3,29.66,ESE,116,0.0,0.0,83,0.00,,,0.21,WeatherCatV1.02B3,2013-02-07 04:02:00,
2013-02-06 23:07:00,30.6,26.4,29.66,ESE,115,0.0,0.0,84,0.00,,,0.21,WeatherCatV1.02B3,2013-02-07 04:07:00,
2013-02-06 23:12:00,30.5,26.3,29.66,ESE,114,0.0,0.0,84,0.00,,,0.21,WeatherCatV1.02B3,2013-02-07 04:12:00,
2013-02-06 23:17:00,30.4,26.2,29.67,ESE,114,0.0,0.0,84,0.00,,,0.21,WeatherCatV1.02B3,2013-02-07 04:17:00,
2013-02-06 23:22:00,30.2,26.0,29.67,ESE,114,0.0,0.0,84,0.00,,,0.21,WeatherCatV1.02B3,2013-02-07 04:22:00,
2013-02-06 23:27:00,30.4,26.2,29.66,East,90,0.0,1.0,84,0.00,,,0.21,WeatherCatV1.02B3,2013-02-07 04:27:00,
2013-02-06 23:32:00,30.6,26.4,29.66,ESE,105,0.0,0.0,84,0.00,,,0.21,WeatherCatV1.02B3,2013-02-07 04:32:00,
2013-02-06 23:37:00,30.6,26.4,29.66,ESE,104,0.0,0.0,84,0.00,,,0.21,WeatherCatV1.02B3,2013-02-07 04:37:00,
2013-02-06 23:42:00,30.5,26.3,29.66,ESE,105,0.0,0.0,84,0.00,,,0.21,WeatherCatV1.02B3,2013-02-07 04:42:00,
2013-02-06 23:47:00,30.4,26.4,29.66,East,90,0.0,1.0,85,0.00,,,0.21,WeatherCatV1.02B3,2013-02-07 04:47:00,
2013-02-06 23:52:00,30.4,26.4,29.67,East,90,0.0,0.0,85,0.00,,,0.21,WeatherCatV1.02B3,2013-02-07 04:52:00,
2013-02-06 23:57:00,30.3,26.3,29.67,East,90,0.0,0.0,85,0.00,,,0.21,WeatherCatV1.02B3,2013-02-07 04:57:00,